Погода в Меване

Габон     0°05′20″N   11°04′51″E
темп.,
°C
ветер,
м/с
пор.,
м/с
влажн.,
%
обл.,
%
осадки,
мм/ч
давл.,
гПа
погр.,
м
27 ноября, сб
сб2701:00+23зюз1298100 3.3 101187
04:00+22зюз1299100 0.0 101060
07:00+22зюз119832 2.3 1012102
10:00+27юз117620 2.9 1012717
13:00+27ссз1177100 4.3 1010574
16:00+27с118573 3.1 1008156
19:00+23юз0090100 5.5 101011
22:00+23з1196100 0.2 101241
28 ноября, вс
вс2801:00+22з1399100 0.2 1011146
04:00+21зюз11100100 0.1 101164
07:00+22зюз1197100 0.1 1012123
10:00+27зюз1275100 0.1 1012774
13:00+30з2262100 0.1 10091396
16:00+27з128299 2.5 1008354
19:00+23зюз2296100 4.3 101052
22:00+22зюз2498100 0.0 1012129
29 ноября, пн
пн2901:00+22зюз14100100 0.0 1011219
04:00+22зюз1310098 0.1 1011122
07:00+22з1298100 0.1 1012163
10:00+27зюз127199 0.0 1013899
13:00+29з126751 0.9 10101126
16:00+28зюз127351 1.1 1008602
19:00+23зюз219622 2.2 101037
22:00+22юз2398100 1.0 101292
30 ноября, вт
вт3001:00+22з15100100 2.2 1011191
04:00+22зюз1210073 1.8 101090
07:00+22з129843 2.3 1012140
10:00+28зюз127054 0.0 1012854
13:00+29зсз117036 1.6 10091010
16:00+28юз117235 2.5 1008869
19:00+23з119599 4.0 101030
22:00+23з1297100 0.0 101163
1 декабря, ср
ср101:00+22зюз1399100 3.5 101199
04:00+22юз1199100 1.4 101043
07:00+23з129794 1.4 1011105
10:00+28зюз117154 0.1 1012905
13:00+29з117032 1.1 10081016
16:00+28юз128025 5.4 1007375
19:00+24з119491 6.6 100914
22:00+23зюз1196100 0.0 101135